User: anonymous   Login
Location: Natural Bridges National Monument
(37.6093°N, 109.9767°W)
Time: 15:24:30
(UTC-06:00)
Language:

Cosmos 1727 Rocket - Orbit

View from above orbital plane
View from above orbital plane
View from above satellite
View from above satellite

Ground track
Ground track

The orbit data is extracted from the following two-line orbital elements,

1 16511U 86008B   17235.24204355  .00000003  00000-0 -13420-4 0  9997
2 16511  82.9470 170.1972 0025600  94.7147  62.5405 13.75813444585491
Epoch (UTC): 23 August 2017 05:48:32
Eccentricity: 0.0025600
inclination: 82.9470°
perigee height: 960 km
apogee height: 997 km
right ascension of ascending node: 170.1972°
argument of perigee: 94.7147°
revolutions per day: 13.75813444
mean anomaly at epoch: 62.5405°
orbit number at epoch: 58549

The dashed part of the orbit path shows where the satellite is in the earth's shadow,  

DLR